Location: Neuvy Saint Sepulchre
(46.5953°N, 1.8122°E)
Time: 16:17:16
(UTC+02:00)

ISS - Visible Passes

Search period start: 22 October 2021 00:00
Search period end: 31 October 2021 23:00
Orbit: 417 x 423 km, 51.6° (Epoch: 22 October)

Date Brightness Start Highest point End Pass type
(mag) Time Alt. Az. Time Alt. Az. Time Alt. Az.
22 Oct -1.1 07:00:45 10° S 07:03:12 19° SE 07:05:41 10° E visible
23 Oct -0.8 06:14:46 10° SSE 06:16:11 12° SE 06:17:36 10° ESE visible
23 Oct -3.5 07:49:08 10° SW 07:52:29 70° SSE 07:55:51 10° ENE visible
24 Oct -2.8 07:02:38 14° SW 07:05:18 46° SE 07:08:33 10° ENE visible
25 Oct -2.2 06:17:50 29° SSE 06:18:09 30° SE 06:21:09 10° E visible
25 Oct -3.6 07:51:30 10° W 07:54:51 58° NNW 07:58:11 10° ENE visible
26 Oct -0.5 05:32:53 13° E 05:32:53 13° E 05:33:33 10° E visible
26 Oct -3.8 07:05:53 27° WSW 07:07:33 79° NNW 07:10:57 10° ENE visible
27 Oct -3.2 06:20:48 58° E 06:20:48 58° E 06:23:40 10° ENE visible
27 Oct -2.9 07:54:08 10° W 07:57:19 38° N 08:00:30 10° ENE visible
28 Oct -0.6 05:35:38 15° ENE 05:35:38 15° ENE 05:36:21 10° ENE visible
28 Oct -3.2 07:08:37 28° WNW 07:09:56 44° NNW 07:13:13 10° ENE visible
29 Oct -2.8 06:23:23 43° NNE 06:23:23 43° NNE 06:25:56 10° ENE visible
29 Oct -2.6 07:56:43 10° WNW 07:59:50 33° N 08:02:56 10° ENE visible
30 Oct -0.6 05:38:06 14° ENE 05:38:06 14° ENE 05:38:39 10° ENE visible
30 Oct -2.7 07:11:04 24° NW 07:12:25 34° N 07:15:32 10° ENE visible
31 Oct -2.4 05:25:44 33° NNE 05:25:44 33° NNE 05:28:11 10° ENE visible
31 Oct -2.8 06:59:07 10° WNW 07:02:18 37° N 07:05:29 10° E visible
